Ilyas Efendiyev — 9HES8 — position and weather

sailwx.info

Track history (hours):
 
Tides and Currents Weather Stations Pressure Air Temp Water Temp Dewpoint Dewpoint Depression Visibility Wind Speed Wind Dir Waves Ship Positions

Ilyas Efendiyev

Last reported at 2014-Oct-27 03:31 UTC. Time now 2014-Nov-01 11:57 UTC.
Position N 36°60' E 002°45'.

Length 140 m; draft 4.6 m.

Type: Cargo ship. MMSI: 215901000.

Date/timePositionNaut miles runAvg speedWind from/ knotsBaromVisibWave heightAir tempDewpointWater temp
2014-Oct-27 03:31N 36°60' E 002°45'8 8.1
2014-Oct-27 02:33N 36°57' E 002°35'10 8.0
2014-Oct-27 01:21N 36°55' E 002°24'56 8.1
2014-Oct-26 18:27N 36°42' E 001°16'25 8.3
2014-Oct-26 15:27N 36°36' E 000°46'8 8.9
2014-Oct-26 14:32N 36°33' E 000°36'285 8.3
2014-Oct-25 04:17N 35°56' W 005°15'4 4.9
2014-Oct-25 03:31N 35°54' W 005°19'0 0.0
2014-Oct-25 02:27N 35°54' W 005°19'0 0.0
2014-Oct-25 01:31N 35°54' W 005°19'0 0.0
2014-Oct-25 00:33N 35°54' W 005°19'1 1.0
2014-Oct-24 23:33N 35°55' W 005°19'6 6.1
2014-Oct-24 22:32N 35°57' W 005°26'224 6.9
2014-Oct-23 14:11N 37°25' W 009°43'5 8.0
2014-Oct-23 13:33N 37°30' W 009°44'8 8.1
2014-Oct-23 12:33N 37°37' W 009°47'8 8.1
2014-Oct-23 11:33N 37°45' W 009°49'8 8.1
2014-Oct-23 10:33N 37°53' W 009°51'8 8.1
2014-Oct-23 09:33N 38°01' W 009°53'8 8.0
2014-Oct-23 08:33N 38°09' W 009°55'8 8.2
2014-Oct-23 07:33N 38°17' W 009°57'8 8.2
2014-Oct-23 06:33N 38°25' W 009°59'8 8.3
2014-Oct-23 05:32N 38°33' W 010°02'8 8.1
2014-Oct-23 04:33N 38°41' W 010°05'8 7.7
2014-Oct-23 03:33N 38°49' W 010°05'8 8.0
2014-Oct-23 02:32N 38°57' W 010°05'8 7.9
2014-Oct-23 01:29N 39°05' W 010°04'9 7.8
2014-Oct-23 00:20N 39°14' W 010°04'6 8.1
2014-Oct-22 23:33N 39°20' W 010°04'  
2014-Oct-17 09:10N 50°33' E 000°12'5 8.5
2014-Oct-17 08:34N 50°35' E 000°20'8 8.2
2014-Oct-17 07:34N 50°36' E 000°33'8 7.7
2014-Oct-17 06:34N 50°40' E 000°43'  
Track history (hours):
 
Tides and Currents Weather Stations Pressure Air Temp Water Temp Dewpoint Dewpoint Depression Visibility Wind Speed Wind Dir Waves Ship Positions

Ilyas Efendiyev

Last reported at 2014-Oct-27 03:31 UTC. Time now 2014-Nov-01 11:57 UTC.
Position N 36°60' E 002°45'.

Length 140 m; draft 4.6 m.

Type: Cargo ship. MMSI: 215901000.

Date/timePositionNaut miles runAvg speedWind from/ knotsBaromVisibWave heightAir tempDewpointWater temp
2014-Oct-27 03:31N 36°60' E 002°45'8 8.1
2014-Oct-27 02:33N 36°57' E 002°35'10 8.0
2014-Oct-27 01:21N 36°55' E 002°24'56 8.1
2014-Oct-26 18:27N 36°42' E 001°16'25 8.3
2014-Oct-26 15:27N 36°36' E 000°46'8 8.9
2014-Oct-26 14:32N 36°33' E 000°36'285 8.3
2014-Oct-25 04:17N 35°56' W 005°15'4 4.9
2014-Oct-25 03:31N 35°54' W 005°19'0 0.0
2014-Oct-25 02:27N 35°54' W 005°19'0 0.0
2014-Oct-25 01:31N 35°54' W 005°19'0 0.0
2014-Oct-25 00:33N 35°54' W 005°19'1 1.0
2014-Oct-24 23:33N 35°55' W 005°19'6 6.1
2014-Oct-24 22:32N 35°57' W 005°26'224 6.9
2014-Oct-23 14:11N 37°25' W 009°43'5 8.0
2014-Oct-23 13:33N 37°30' W 009°44'8 8.1
2014-Oct-23 12:33N 37°37' W 009°47'8 8.1
2014-Oct-23 11:33N 37°45' W 009°49'8 8.1
2014-Oct-23 10:33N 37°53' W 009°51'8 8.1
2014-Oct-23 09:33N 38°01' W 009°53'8 8.0
2014-Oct-23 08:33N 38°09' W 009°55'8 8.2
2014-Oct-23 07:33N 38°17' W 009°57'8 8.2
2014-Oct-23 06:33N 38°25' W 009°59'8 8.3
2014-Oct-23 05:32N 38°33' W 010°02'8 8.1
2014-Oct-23 04:33N 38°41' W 010°05'8 7.7
2014-Oct-23 03:33N 38°49' W 010°05'8 8.0
2014-Oct-23 02:32N 38°57' W 010°05'8 7.9
2014-Oct-23 01:29N 39°05' W 010°04'9 7.8
2014-Oct-23 00:20N 39°14' W 010°04'6 8.1
2014-Oct-22 23:33N 39°20' W 010°04'  
2014-Oct-17 09:10N 50°33' E 000°12'5 8.5
2014-Oct-17 08:34N 50°35' E 000°20'8 8.2
2014-Oct-17 07:34N 50°36' E 000°33'8 7.7
2014-Oct-17 06:34N 50°40' E 000°43'  

Dump ship's entire track history